Skip Page Navigation
NASA JPL Caltech
NASA Logo - Jet Propulsion Laboratory + View the NASA Portal
+ Near-Earth Object (NEO) Program
Search JPL
JPL Home Earth Solar System Stars & Galaxies Technology
JPL Solar System Dynamics
BODIES ORBITS EPHEMERIDES TOOLS PHYSICAL DATA DISCOVERY FAQ SITE MAP
JPL Small-Body Database Browser
Search: [ help ]  
52271 Lecorbusier (1988 RP3)
Classification: Main-belt Asteroid          SPK-ID: 2052271
Ephemeris | Orbit Diagram | Orbital Elements | Physical Parameters | Discovery Circumstances ]

[ show orbit diagram ]
Orbital Elements at Epoch 2457000.5 (2014-Dec-09.0) TDB
Reference: JPL 16 (heliocentric ecliptic J2000)
 Element Value Uncertainty (1-sigma)   Units 
e .181190629558407 1.1402e-07  
a 2.587521228721367 2.1129e-08 AU
q 2.1186866282936 3.0003e-07 AU
i 13.23456382948881 1.0465e-05 deg
node 357.720043817375 2.1494e-05 deg
peri 36.45563104277272 3.3942e-05 deg
M 85.97783625442149 2.1993e-05 deg
tp 2456637.414989700840
(2013-Dec-10.91498970)
9.2056e-05 JED
period 1520.282544921286
4.16
1.8622e-05
5.098e-08
d
yr
n .236798088093973 2.9005e-09 deg/d
Q 3.056355829149135 2.4958e-08 AU
  Orbit Determination Parameters
   # obs. used (total)      853  
   data-arc span      9750 days (26.69 yr)  
   first obs. used      1988-09-08  
   last obs. used      2015-05-20  
   planetary ephem.      DE431  
   SB-pert. ephem.      SB431-BIG16  
   condition code      0  
   fit RMS      .50083  
   data source      ORB  
   producer      Otto Matic  
   solution date      2015-Jun-04 17:54:45  

Additional Information
 Earth MOID = 1.13708 AU 
 T_jup = 3.361 
[ show covariance matrix ]

Ephemeris | Orbit Diagram | Orbital Elements | Physical Parameters | Discovery Circumstances ]

Physical Parameter Table
Parameter Symbol Value Units Sigma Reference Notes
absolute magnitude H 13.6 mag n/a MPO337676  

52271 Lecorbusier           Discovered 1988 Sept. 8 by F. Börngen at Tautenburg.
Swiss-French Le Corbusier (1887-1965) was one of the most influential architects and city planners of the modern age. In his numerous writings he presented his new ideas and conceptions of form.
NOTE: some special characters may not display properly (any characters within {} are an attempt to place the proper accent above a character)
Reference: 20030501/MPCPages.arcLast Updated: 2003-10-02

Alternate Designations
 1988 RP3 = 1999 GH53 
Ephemeris | Orbit Diagram | Orbital Elements | Physical Parameters | Discovery Circumstances ]
ABOUT SSD CREDITS/AWARDS PRIVACY/COPYRIGHT GLOSSARY LINKS
FirstGov 2015-Jul-06 15:41 UT
(server date/time)  
NASA Home Page
Site Manager:   Ryan S. Park
Webmaster  Alan B. Chamberlin